Time,TemperatureF,DewpointF,PressureIn,WindDirection,WindDirectionDegrees,WindSpeedMPH,WindSpeedGustMPH,Humidity,HourlyPrecipIn,Conditions,Clouds,dailyrainin,SoftwareType,DateUTC
2013-02-01 00:05:00,32.2,21.0,29.86,SSW,212,0.0,0.0,63,0.00,,,0.00,Wunderground v.1.15,2013-02-01 05:05:00,
2013-02-01 00:10:00,32.2,21.0,29.86,SSW,212,0.0,0.0,63,0.00,,,0.00,Wunderground v.1.15,2013-02-01 05:10:00,
2013-02-01 00:15:00,32.1,20.9,29.86,SSW,212,0.0,0.0,63,0.00,,,0.00,Wunderground v.1.15,2013-02-01 05:15:00,
2013-02-01 00:20:00,32.1,21.3,29.86,SSW,212,0.0,0.0,64,0.00,,,0.00,Wunderground v.1.15,2013-02-01 05:20:00,
2013-02-01 00:30:00,32.2,21.7,29.85,SSW,212,0.0,0.0,65,0.00,,,0.00,Wunderground v.1.15,2013-02-01 05:30:00,
2013-02-01 00:35:00,32.3,21.5,29.85,SSW,212,0.0,0.0,64,0.00,,,0.00,Wunderground v.1.15,2013-02-01 05:35:00,
2013-02-01 00:40:00,32.4,21.9,29.85,SSW,212,0.0,0.0,65,0.00,,,0.00,Wunderground v.1.15,2013-02-01 05:40:00,
2013-02-01 00:45:00,32.6,21.8,29.85,SSW,212,0.0,1.0,64,0.00,,,0.00,Wunderground v.1.15,2013-02-01 05:45:00,
2013-02-01 00:55:00,32.8,22.0,29.86,South,173,0.0,0.0,64,0.00,,,0.00,Wunderground v.1.15,2013-02-01 05:55:00,
2013-02-01 01:00:00,32.8,22.0,29.86,South,173,0.0,0.0,64,0.00,,,0.00,Wunderground v.1.15,2013-02-01 06:00:00,
2013-02-01 01:05:00,32.8,22.0,29.85,South,173,0.0,0.0,64,0.00,,,0.00,Wunderground v.1.15,2013-02-01 06:05:00,
2013-02-01 01:15:00,32.7,21.9,29.85,South,173,0.0,0.0,64,0.00,,,0.00,Wunderground v.1.15,2013-02-01 06:15:00,
2013-02-01 01:20:00,32.7,22.2,29.85,South,173,0.0,0.0,65,0.00,,,0.00,Wunderground v.1.15,2013-02-01 06:20:00,
2013-02-01 01:30:00,32.7,22.2,29.85,South,181,0.0,0.0,65,0.00,,,0.00,Wunderground v.1.15,2013-02-01 06:30:00,
2013-02-01 01:35:00,32.7,22.2,29.84,South,181,0.0,0.0,65,0.00,,,0.00,Wunderground v.1.15,2013-02-01 06:35:00,
2013-02-01 01:45:00,32.8,22.3,29.83,South,174,0.0,0.0,65,0.00,,,0.00,Wunderground v.1.15,2013-02-01 06:45:00,
2013-02-01 01:55:00,32.8,22.7,29.83,South,175,0.0,0.0,66,0.00,,,0.00,Wunderground v.1.15,2013-02-01 06:55:00,
2013-02-01 02:00:00,32.9,23.1,29.83,South,175,0.0,0.0,67,0.00,,,0.00,Wunderground v.1.15,2013-02-01 07:00:00,
2013-02-01 02:05:00,32.9,23.1,29.83,South,175,0.0,1.0,67,0.00,,,0.00,Wunderground v.1.15,2013-02-01 07:05:00,
2013-02-01 02:15:00,33.1,23.3,29.83,South,175,0.0,0.0,67,0.00,,,0.00,Wunderground v.1.15,2013-02-01 07:15:00,
2013-02-01 02:20:00,33.2,23.4,29.82,South,175,0.0,0.0,67,0.00,,,0.00,Wunderground v.1.15,2013-02-01 07:20:00,
2013-02-01 02:30:00,33.3,23.9,29.82,South,175,0.0,0.0,68,0.00,,,0.00,Wunderground v.1.15,2013-02-01 07:30:00,
2013-02-01 02:35:00,33.4,23.6,29.81,South,175,0.0,0.0,67,0.00,,,0.00,Wunderground v.1.15,2013-02-01 07:35:00,
2013-02-01 02:45:00,33.4,24.0,29.80,South,175,0.0,0.0,68,0.00,,,0.00,Wunderground v.1.15,2013-02-01 07:45:00,
2013-02-01 02:50:00,33.4,25.7,29.79,South,175,0.0,0.0,73,0.00,,,0.00,Wunderground v.1.15,2013-02-01 07:50:00,
2013-02-01 03:00:00,33.3,25.2,29.78,South,175,0.0,0.0,72,0.00,,,0.00,Wunderground v.1.15,2013-02-01 08:00:00,
2013-02-01 03:05:00,33.2,25.1,29.79,South,175,0.0,0.0,72,0.00,,,0.00,Wunderground v.1.15,2013-02-01 08:05:00,
2013-02-01 03:15:00,33.0,24.6,29.78,South,175,0.0,0.0,71,0.00,,,0.00,Wunderground v.1.15,2013-02-01 08:15:00,
2013-02-01 03:25:00,32.8,23.7,29.78,South,175,0.0,0.0,69,0.00,,,0.00,Wunderground v.1.15,2013-02-01 08:25:00,
2013-02-01 03:35:00,32.7,24.3,29.77,South,175,0.0,0.0,71,0.00,,,0.00,Wunderground v.1.15,2013-02-01 08:35:00,
2013-02-01 03:40:00,32.6,24.9,29.77,South,175,0.0,0.0,73,0.00,,,0.00,Wunderground v.1.15,2013-02-01 08:40:00,
2013-02-01 03:50:00,32.3,23.6,29.77,South,175,0.0,0.0,70,0.00,,,0.00,Wunderground v.1.15,2013-02-01 08:50:00,
2013-02-01 03:55:00,32.3,23.9,29.76,South,175,0.0,0.0,71,0.00,,,0.00,Wunderground v.1.15,2013-02-01 08:55:00,
2013-02-01 04:05:00,32.3,24.3,29.77,South,175,0.0,0.0,72,0.00,,,0.00,Wunderground v.1.15,2013-02-01 09:05:00,
2013-02-01 04:15:00,32.4,24.4,29.77,South,174,0.0,0.0,72,0.00,,,0.00,Wunderground v.1.15,2013-02-01 09:15:00,
2013-02-01 04:25:00,32.5,24.5,29.78,South,175,0.0,0.0,72,0.00,,,0.00,Wunderground v.1.15,2013-02-01 09:25:00,
2013-02-01 04:35:00,32.6,24.9,29.78,South,175,0.0,0.0,73,0.00,,,0.00,Wunderground v.1.15,2013-02-01 09:35:00,
2013-02-01 04:40:00,32.6,24.6,29.78,South,175,0.0,0.0,72,0.00,,,0.00,Wunderground v.1.15,2013-02-01 09:40:00,
2013-02-01 04:50:00,32.6,24.2,29.78,South,175,0.0,0.0,71,0.00,,,0.00,Wunderground v.1.15,2013-02-01 09:50:00,
2013-02-01 04:55:00,32.6,24.6,29.79,South,175,0.0,1.0,72,0.00,,,0.00,Wunderground v.1.15,2013-02-01 09:55:00,
2013-02-01 05:05:00,32.6,25.6,29.83,NNW,334,1.0,1.0,75,0.00,,,0.00,Wunderground v.1.15,2013-02-01 10:05:00,
2013-02-01 05:15:00,31.9,26.4,29.82,WNW,300,0.0,2.0,80,0.00,,,0.00,Wunderground v.1.15,2013-02-01 10:15:00,
2013-02-01 05:25:00,31.7,26.8,29.82,WNW,300,0.0,0.0,82,0.00,,,0.00,Wunderground v.1.15,2013-02-01 10:25:00,
2013-02-01 05:30:00,31.7,26.5,29.83,WNW,291,0.0,0.0,81,0.00,,,0.00,Wunderground v.1.15,2013-02-01 10:30:00,
2013-02-01 05:40:00,32.1,26.3,29.84,NNW,332,1.0,1.0,79,0.00,,,0.00,Wunderground v.1.15,2013-02-01 10:40:00,
2013-02-01 05:50:00,32.8,24.1,29.86,North,354,5.0,8.0,70,0.00,,,0.00,Wunderground v.1.15,2013-02-01 10:50:00,
2013-02-01 05:55:00,32.4,20.0,29.87,SSE,159,6.0,8.0,60,0.00,,,0.00,Wunderground v.1.15,2013-02-01 10:55:00,
2013-02-01 06:00:00,32.0,18.9,29.88,WSW,243,5.0,6.0,58,0.00,,,0.00,Wunderground v.1.15,2013-02-01 11:00:00,
2013-02-01 06:05:00,31.8,18.7,29.89,WNW,284,4.0,6.0,58,0.00,,,0.00,Wunderground v.1.15,2013-02-01 11:05:00,
2013-02-01 06:15:00,31.5,17.6,29.90,NW,326,2.0,4.0,56,0.00,,,0.00,Wunderground v.1.15,2013-02-01 11:15:00,
2013-02-01 06:20:00,31.3,17.8,29.91,NNW,339,2.0,6.0,57,0.00,,,0.00,Wunderground v.1.15,2013-02-01 11:20:00,
2013-02-01 06:30:00,30.6,16.3,29.91,NNW,334,4.0,8.0,55,0.00,,,0.00,Wunderground v.1.15,2013-02-01 11:30:00,
2013-02-01 06:40:00,30.1,15.0,29.92,NW,324,4.0,7.0,53,0.00,,,0.00,Wunderground v.1.15,2013-02-01 11:40:00,
2013-02-01 06:45:00,30.0,14.9,29.92,NNW,334,5.0,7.0,53,0.00,,,0.00,Wunderground v.1.15,2013-02-01 11:45:00,
2013-02-01 06:55:00,29.5,14.5,29.93,SE,133,2.0,5.0,53,0.00,,,0.00,Wunderground v.1.15,2013-02-01 11:55:00,
2013-02-01 07:00:00,29.3,12.5,29.94,SE,135,4.0,4.0,49,0.00,,,0.00,Wunderground v.1.15,2013-02-01 12:00:00,
2013-02-01 07:05:00,29.1,10.9,29.94,North,354,5.0,5.0,46,0.00,,,0.00,Wunderground v.1.15,2013-02-01 12:05:00,
2013-02-01 07:15:00,28.7,10.0,29.96,NW,314,6.0,10.0,45,0.00,,,0.00,Wunderground v.1.15,2013-02-01 12:15:00,
2013-02-01 07:20:00,28.5,11.7,29.97,NW,318,6.0,6.0,49,0.00,,,0.00,Wunderground v.1.15,2013-02-01 12:20:00,
2013-02-01 07:25:00,28.3,10.1,29.96,ENE,70,5.0,7.0,46,0.00,,,0.00,Wunderground v.1.15,2013-02-01 12:25:00,
2013-02-01 07:35:00,28.0,9.4,29.98,North,354,5.0,5.0,45,0.00,,,0.00,Wunderground v.1.15,2013-02-01 12:35:00,
2013-02-01 07:45:00,27.6,11.4,29.98,West,278,6.0,7.0,50,0.00,,,0.00,Wunderground v.1.15,2013-02-01 12:45:00,
2013-02-01 07:50:00,27.4,9.8,29.99,NNW,334,4.0,6.0,47,0.00,,,0.00,Wunderground v.1.15,2013-02-01 12:50:00,
2013-02-01 08:00:00,27.2,9.1,30.00,NW,313,2.0,3.0,46,0.00,,,0.00,Wunderground v.1.15,2013-02-01 13:00:00,
2013-02-01 08:05:00,27.1,9.0,30.00,NW,307,4.0,5.0,46,0.00,,,0.00,Wunderground v.1.15,2013-02-01 13:05:00,
2013-02-01 08:15:00,27.0,9.9,30.01,East,82,3.0,4.0,48,0.00,,,0.00,Wunderground v.1.15,2013-02-01 13:15:00,
2013-02-01 08:20:00,26.9,9.3,30.02,NNE,14,4.0,6.0,47,0.00,,,0.00,Wunderground v.1.15,2013-02-01 13:20:00,
2013-02-01 08:30:00,26.7,10.5,30.03,NNW,339,3.0,5.0,50,0.00,,,0.00,Wunderground v.1.15,2013-02-01 13:30:00,
2013-02-01 08:35:00,26.6,10.0,30.04,North,349,2.0,5.0,49,0.00,,,0.00,Wunderground v.1.15,2013-02-01 13:35:00,
2013-02-01 08:40:00,26.6,10.4,30.05,North,349,3.0,10.0,50,0.00,,,0.00,Wunderground v.1.15,2013-02-01 13:40:00,
2013-02-01 08:50:00,26.3,9.2,30.06,NNW,332,3.0,4.0,48,0.00,,,0.00,Wunderground v.1.15,2013-02-01 13:50:00,
2013-02-01 09:00:00,26.2,8.7,30.07,WSW,247,4.0,8.0,47,0.00,,,0.00,Wunderground v.1.15,2013-02-01 14:00:00,
2013-02-01 09:05:00,26.3,7.8,30.07,SSW,200,3.0,8.0,45,0.00,,,0.00,Wunderground v.1.15,2013-02-01 14:05:00,
2013-02-01 09:15:00,26.4,7.9,30.07,NW,324,2.0,3.0,45,0.00,,,0.00,Wunderground v.1.15,2013-02-01 14:15:00,
2013-02-01 09:20:00,26.3,6.8,30.08,NW,307,3.0,3.0,43,0.00,,,0.00,Wunderground v.1.15,2013-02-01 14:20:00,
2013-02-01 09:25:00,26.2,7.2,30.08,WNW,284,3.0,3.0,44,0.00,,,0.00,Wunderground v.1.15,2013-02-01 14:25:00,
2013-02-01 09:35:00,26.1,7.1,30.09,NNW,345,3.0,6.0,44,0.00,,,0.00,Wunderground v.1.15,2013-02-01 14:35:00,
2013-02-01 09:40:00,26.0,6.5,30.09,North,4,3.0,3.0,43,0.00,,,0.00,Wunderground v.1.15,2013-02-01 14:40:00,
2013-02-01 09:50:00,25.4,4.9,30.10,NNW,328,6.0,6.0,41,0.00,,,0.00,Wunderground v.1.15,2013-02-01 14:50:00,
2013-02-01 10:00:00,25.0,6.6,30.11,West,264,5.0,9.0,45,0.00,,,0.00,Wunderground v.1.15,2013-02-01 15:00:00,
2013-02-01 10:05:00,24.9,5.5,30.12,WNW,302,5.0,9.0,43,0.00,,,0.00,Wunderground v.1.15,2013-02-01 15:05:00,
2013-02-01 10:15:00,25.0,5.6,30.13,WNW,295,3.0,4.0,43,0.00,,,0.00,Wunderground v.1.15,2013-02-01 15:15:00,
2013-02-01 10:20:00,25.2,6.3,30.13,ESE,106,3.0,4.0,44,0.00,,,0.00,Wunderground v.1.15,2013-02-01 15:20:00,
2013-02-01 10:25:00,25.3,5.9,30.14,WNW,293,3.0,4.0,43,0.00,,,0.00,Wunderground v.1.15,2013-02-01 15:25:00,
2013-02-01 10:35:00,25.6,7.2,30.14,NW,322,2.0,3.0,45,0.00,,,0.00,Wunderground v.1.15,2013-02-01 15:35:00,
2013-02-01 10:45:00,25.7,6.8,30.15,WNW,293,3.0,3.0,44,0.00,,,0.00,Wunderground v.1.15,2013-02-01 15:45:00,
2013-02-01 10:50:00,25.7,6.8,30.15,ESE,106,3.0,3.0,44,0.00,,,0.00,Wunderground v.1.15,2013-02-01 15:50:00,
2013-02-01 11:00:00,25.8,6.9,30.15,NNW,328,3.0,10.0,44,0.00,,,0.00,Wunderground v.1.15,2013-02-01 16:00:00,
2013-02-01 11:05:00,25.8,6.9,30.16,NNW,337,3.0,10.0,44,0.00,,,0.00,Wunderground v.1.15,2013-02-01 16:05:00,
2013-02-01 11:15:00,26.1,7.1,30.16,WNW,301,2.0,3.0,44,0.00,,,0.00,Wunderground v.1.15,2013-02-01 16:15:00,
2013-02-01 11:20:00,26.2,7.7,30.16,SW,231,2.0,2.0,45,0.00,,,0.00,Wunderground v.1.15,2013-02-01 16:20:00,
2013-02-01 11:25:00,26.2,6.2,30.16,WSW,253,3.0,3.0,42,0.00,,,0.00,Wunderground v.1.15,2013-02-01 16:25:00,
2013-02-01 11:35:00,25.9,5.9,30.17,NNW,346,4.0,6.0,42,0.00,,,0.00,Wunderground v.1.15,2013-02-01 16:35:00,
2013-02-01 11:45:00,26.3,7.8,30.17,NW,315,2.0,4.0,45,0.00,,,0.00,Wunderground v.1.15,2013-02-01 16:45:00,
2013-02-01 11:50:00,26.8,7.8,30.17,NNW,336,3.0,3.0,44,0.00,,,0.00,Wunderground v.1.15,2013-02-01 16:50:00,
2013-02-01 12:00:00,27.0,6.9,30.17,East,98,2.0,2.0,42,0.00,,,0.00,Wunderground v.1.15,2013-02-01 17:00:00,
2013-02-01 12:05:00,27.1,7.5,30.17,North,354,3.0,3.0,43,0.00,,,0.00,Wunderground v.1.15,2013-02-01 17:05:00,
2013-02-01 12:15:00,27.5,8.4,30.17,SSE,164,1.0,4.0,44,0.00,,,0.00,Wunderground v.1.15,2013-02-01 17:15:00,
2013-02-01 12:20:00,27.7,6.5,30.17,WNW,287,2.0,2.0,40,0.00,,,0.00,Wunderground v.1.15,2013-02-01 17:20:00,
2013-02-01 12:25:00,27.9,9.3,30.16,NE,52,1.0,2.0,45,0.00,,,0.00,Wunderground v.1.15,2013-02-01 17:25:00,
2013-02-01 12:35:00,28.8,8.6,30.17,NW,316,2.0,2.0,42,0.00,,,0.00,Wunderground v.1.15,2013-02-01 17:35:00,
2013-02-01 12:45:00,28.9,9.2,30.16,NW,323,3.0,6.0,43,0.00,,,0.00,Wunderground v.1.15,2013-02-01 17:45:00,
2013-02-01 12:50:00,28.9,8.1,30.16,North,354,3.0,4.0,41,0.00,,,0.00,Wunderground v.1.15,2013-02-01 17:50:00,
2013-02-01 12:55:00,28.8,9.1,30.17,North,4,3.0,5.0,43,0.00,,,0.00,Wunderground v.1.15,2013-02-01 17:55:00,
2013-02-01 13:05:00,28.6,6.2,30.17,West,275,4.0,8.0,38,0.00,,,0.00,Wunderground v.1.15,2013-02-01 18:05:00,
2013-02-01 13:15:00,27.8,6.6,30.17,WNW,283,4.0,5.0,40,0.00,,,0.00,Wunderground v.1.15,2013-02-01 18:15:00,
2013-02-01 13:25:00,28.4,7.1,30.17,NW,318,2.0,4.0,40,0.00,,,0.00,Wunderground v.1.15,2013-02-01 18:25:00,
2013-02-01 13:30:00,28.5,6.1,30.17,NNE,17,3.0,6.0,38,0.00,,,0.00,Wunderground v.1.15,2013-02-01 18:30:00,
2013-02-01 13:40:00,29.2,7.8,30.17,North,11,2.0,2.0,40,0.00,,,0.00,Wunderground v.1.15,2013-02-01 18:40:00,
2013-02-01 13:50:00,29.5,7.5,30.16,NNW,346,4.0,7.0,39,0.00,,,0.00,Wunderground v.1.15,2013-02-01 18:50:00,
2013-02-01 13:55:00,29.6,7.6,30.17,NNW,343,5.0,7.0,39,0.00,,,0.00,Wunderground v.1.15,2013-02-01 18:55:00,
2013-02-01 14:05:00,30.0,7.4,30.17,WNW,284,3.0,4.0,38,0.00,,,0.00,Wunderground v.1.15,2013-02-01 19:05:00,
2013-02-01 14:15:00,30.3,8.8,30.17,West,272,3.0,3.0,40,0.00,,,0.00,Wunderground v.1.15,2013-02-01 19:15:00,
2013-02-01 14:25:00,30.3,7.1,30.17,NNW,330,4.0,5.0,37,0.00,,,0.00,Wunderground v.1.15,2013-02-01 19:25:00,
2013-02-01 14:30:00,30.4,7.8,30.18,NW,307,4.0,8.0,38,0.00,,,0.00,Wunderground v.1.15,2013-02-01 19:30:00,
2013-02-01 14:40:00,30.1,8.7,30.17,SE,143,2.0,2.0,40,0.00,,,0.00,Wunderground v.1.15,2013-02-01 19:40:00,
2013-02-01 14:50:00,30.0,8.6,30.18,NW,324,1.0,3.0,40,0.00,,,0.00,Wunderground v.1.15,2013-02-01 19:50:00,
2013-02-01 14:55:00,29.9,7.3,30.18,WSW,246,4.0,5.0,38,0.00,,,0.00,Wunderground v.1.15,2013-02-01 19:55:00,
2013-02-01 15:05:00,29.7,7.7,30.18,NW,312,3.0,6.0,39,0.00,,,0.00,Wunderground v.1.15,2013-02-01 20:05:00,
2013-02-01 15:15:00,29.5,7.5,30.19,WNW,300,4.0,5.0,39,0.00,,,0.00,Wunderground v.1.15,2013-02-01 20:15:00,
2013-02-01 15:25:00,29.6,7.6,30.19,West,278,3.0,3.0,39,0.00,,,0.00,Wunderground v.1.15,2013-02-01 20:25:00,
2013-02-01 15:30:00,29.5,7.5,30.19,NNW,342,4.0,7.0,39,0.00,,,0.00,Wunderground v.1.15,2013-02-01 20:30:00,
2013-02-01 15:40:00,29.2,7.3,30.20,North,354,4.0,8.0,39,0.00,,,0.00,Wunderground v.1.15,2013-02-01 20:40:00,
2013-02-01 15:45:00,29.1,7.7,30.20,NNW,340,4.0,8.0,40,0.00,,,0.00,Wunderground v.1.15,2013-02-01 20:45:00,
2013-02-01 15:55:00,29.1,7.7,30.20,WNW,283,4.0,9.0,40,0.00,,,0.00,Wunderground v.1.15,2013-02-01 20:55:00,
2013-02-01 16:00:00,29.2,7.8,30.21,NNW,343,2.0,2.0,40,0.00,,,0.00,Wunderground v.1.15,2013-02-01 21:00:00,
2013-02-01 16:05:00,29.1,7.7,30.21,South,183,2.0,2.0,40,0.00,,,0.00,Wunderground v.1.15,2013-02-01 21:05:00,
2013-02-01 16:15:00,28.9,7.0,30.21,WNW,291,3.0,3.0,39,0.00,,,0.00,Wunderground v.1.15,2013-02-01 21:15:00,
2013-02-01 16:20:00,28.7,7.4,30.21,WNW,295,4.0,4.0,40,0.00,,,0.00,Wunderground v.1.15,2013-02-01 21:20:00,
2013-02-01 16:30:00,28.5,6.6,30.22,SSE,158,3.0,3.0,39,0.00,,,0.00,Wunderground v.1.15,2013-02-01 21:30:00,
2013-02-01 16:35:00,28.4,7.1,30.22,WSW,245,3.0,3.0,40,0.00,,,0.00,Wunderground v.1.15,2013-02-01 21:35:00,
2013-02-01 16:45:00,28.3,7.0,30.23,NNW,339,2.0,7.0,40,0.00,,,0.00,Wunderground v.1.15,2013-02-01 21:45:00,
2013-02-01 16:50:00,28.1,6.8,30.23,WSW,245,1.0,2.0,40,0.00,,,0.00,Wunderground v.1.15,2013-02-01 21:50:00,
2013-02-01 17:00:00,27.8,7.6,30.23,NNW,339,1.0,5.0,42,0.00,,,0.00,Wunderground v.1.15,2013-02-01 22:00:00,
2013-02-01 17:05:00,27.6,7.5,30.24,NNE,15,2.0,5.0,42,0.00,,,0.00,Wunderground v.1.15,2013-02-01 22:05:00,
2013-02-01 17:15:00,27.2,7.1,30.24,North,354,1.0,2.0,42,0.00,,,0.00,Wunderground v.1.15,2013-02-01 22:15:00,
2013-02-01 17:20:00,27.1,6.5,30.24,NNE,23,1.0,1.0,41,0.00,,,0.00,Wunderground v.1.15,2013-02-01 22:20:00,
2013-02-01 17:30:00,26.7,6.1,30.25,NNW,335,1.0,1.0,41,0.00,,,0.00,Wunderground v.1.15,2013-02-01 22:30:00,
2013-02-01 17:35:00,26.6,6.0,30.25,NNW,330,1.0,1.0,41,0.00,,,0.00,Wunderground v.1.15,2013-02-01 22:35:00,
2013-02-01 17:45:00,26.2,6.7,30.25,NNW,328,0.0,2.0,43,0.00,,,0.00,Wunderground v.1.15,2013-02-01 22:45:00,
2013-02-01 17:50:00,26.1,6.6,30.26,NW,324,0.0,0.0,43,0.00,,,0.00,Wunderground v.1.15,2013-02-01 22:50:00,
2013-02-01 18:00:00,25.7,6.3,30.26,NNW,341,1.0,3.0,43,0.00,,,0.00,Wunderground v.1.15,2013-02-01 23:00:00,
2013-02-01 18:05:00,25.5,6.6,30.26,NNW,332,1.0,5.0,44,0.00,,,0.00,Wunderground v.1.15,2013-02-01 23:05:00,
2013-02-01 18:15:00,25.2,5.8,30.26,North,354,2.0,3.0,43,0.00,,,0.00,Wunderground v.1.15,2013-02-01 23:15:00,
2013-02-01 18:20:00,25.1,6.2,30.26,NW,318,1.0,1.0,44,0.00,,,0.00,Wunderground v.1.15,2013-02-01 23:20:00,
2013-02-01 18:25:00,25.0,6.1,30.27,NW,320,1.0,1.0,44,0.00,,,0.00,Wunderground v.1.15,2013-02-01 23:25:00,
2013-02-01 18:35:00,24.8,6.4,30.27,NW,309,1.0,1.0,45,0.00,,,0.00,Wunderground v.1.15,2013-02-01 23:35:00,
2013-02-01 18:45:00,24.6,6.3,30.28,NNW,345,1.0,1.0,45,0.00,,,0.00,Wunderground v.1.15,2013-02-01 23:45:00,
2013-02-01 18:50:00,24.5,7.1,30.28,NNW,345,0.0,0.0,47,0.00,,,0.00,Wunderground v.1.15,2013-02-01 23:50:00,
2013-02-01 19:00:00,24.2,7.3,30.29,NNW,345,0.0,0.0,48,0.00,,,0.00,Wunderground v.1.15,2013-02-02 00:00:00,
2013-02-01 19:05:00,23.9,6.1,30.30,NNW,345,0.0,0.0,46,0.00,,,0.00,Wunderground v.1.15,2013-02-02 00:05:00,
2013-02-01 19:14:00,23.7,6.8,30.30,NNW,345,0.0,0.0,48,0.00,,,0.00,Wunderground v.1.15,2013-02-02 00:14:00,
2013-02-01 19:20:00,23.6,6.8,30.30,NNW,337,0.0,0.0,48,0.00,,,0.00,Wunderground v.1.15,2013-02-02 00:20:00,
2013-02-01 19:25:00,23.5,6.7,30.30,NNW,337,0.0,0.0,48,0.00,,,0.00,Wunderground v.1.15,2013-02-02 00:25:00,
2013-02-01 19:35:00,23.2,6.4,30.31,NNW,339,0.0,0.0,48,0.00,,,0.00,Wunderground v.1.15,2013-02-02 00:35:00,
2013-02-01 19:40:00,23.1,7.2,30.31,NNW,339,0.0,0.0,50,0.00,,,0.00,Wunderground v.1.15,2013-02-02 00:40:00,
2013-02-01 19:50:00,22.9,6.1,30.31,NNW,339,0.0,0.0,48,0.00,,,0.00,Wunderground v.1.15,2013-02-02 00:50:00,
2013-02-01 19:55:00,22.9,6.1,30.32,NW,311,0.0,1.0,48,0.00,,,0.00,Wunderground v.1.15,2013-02-02 00:55:00,
2013-02-01 20:05:00,22.8,6.0,30.32,NW,324,0.0,0.0,48,0.00,,,0.00,Wunderground v.1.15,2013-02-02 01:05:00,
2013-02-01 20:15:00,22.7,5.5,30.32,NNW,339,0.0,1.0,47,0.00,,,0.00,Wunderground v.1.15,2013-02-02 01:15:00,
2013-02-01 20:25:00,22.6,5.4,30.32,NNW,339,0.0,0.0,47,0.00,,,0.00,Wunderground v.1.15,2013-02-02 01:25:00,
2013-02-01 20:30:00,22.5,5.7,30.33,NNW,339,0.0,0.0,48,0.00,,,0.00,Wunderground v.1.15,2013-02-02 01:30:00,
2013-02-01 20:40:00,22.1,5.4,30.32,NNW,339,0.0,0.0,48,0.00,,,0.00,Wunderground v.1.15,2013-02-02 01:40:00,
2013-02-01 20:45:00,22.0,5.3,30.32,NNW,340,0.0,0.0,48,0.00,,,0.00,Wunderground v.1.15,2013-02-02 01:45:00,
2013-02-01 20:55:00,21.8,6.8,30.33,NW,307,0.0,1.0,52,0.00,,,0.00,Wunderground v.1.15,2013-02-02 01:55:00,
2013-02-01 21:05:00,21.6,6.2,30.33,WNW,299,0.0,0.0,51,0.00,,,0.00,Wunderground v.1.15,2013-02-02 02:05:00,
2013-02-01 21:15:00,21.3,6.0,30.34,WNW,299,0.0,0.0,51,0.00,,,0.00,Wunderground v.1.15,2013-02-02 02:15:00,
2013-02-01 21:20:00,21.1,5.3,30.34,WNW,299,0.0,0.0,50,0.00,,,0.00,Wunderground v.1.15,2013-02-02 02:20:00,
2013-02-01 21:30:00,20.7,7.5,30.35,WNW,299,0.0,0.0,56,0.00,,,0.00,Wunderground v.1.15,2013-02-02 02:30:00,
2013-02-01 21:40:00,20.0,6.8,30.35,WNW,299,0.0,0.0,56,0.00,,,0.00,Wunderground v.1.15,2013-02-02 02:40:00,
2013-02-01 21:45:00,19.7,6.1,30.36,WNW,299,0.0,0.0,55,0.00,,,0.00,Wunderground v.1.15,2013-02-02 02:45:00,
2013-02-01 21:55:00,19.5,5.1,30.36,WNW,299,0.0,0.0,53,0.00,,,0.00,Wunderground v.1.15,2013-02-02 02:55:00,
2013-02-01 22:00:00,19.5,5.9,30.36,WNW,300,0.0,0.0,55,0.00,,,0.00,Wunderground v.1.15,2013-02-02 03:00:00,
2013-02-01 22:05:00,19.5,6.3,30.36,WNW,299,0.0,0.0,56,0.00,,,0.00,Wunderground v.1.15,2013-02-02 03:05:00,
2013-02-01 22:15:00,19.4,8.5,30.36,WNW,299,0.0,0.0,62,0.00,,,0.00,Wunderground v.1.15,2013-02-02 03:15:00,
2013-02-01 22:20:00,19.3,8.4,30.37,WNW,299,0.0,0.0,62,0.00,,,0.00,Wunderground v.1.15,2013-02-02 03:20:00,
2013-02-01 22:30:00,19.1,6.3,30.37,WNW,300,0.0,0.0,57,0.00,,,0.00,Wunderground v.1.15,2013-02-02 03:30:00,
2013-02-01 22:40:00,19.0,8.1,30.36,WNW,299,0.0,0.0,62,0.00,,,0.00,Wunderground v.1.15,2013-02-02 03:40:00,
2013-02-01 22:45:00,18.7,6.7,30.37,WNW,299,0.0,0.0,59,0.00,,,0.00,Wunderground v.1.15,2013-02-02 03:45:00,
2013-02-01 22:55:00,18.6,5.9,30.37,WNW,299,0.0,0.0,57,0.00,,,0.00,Wunderground v.1.15,2013-02-02 03:55:00,
2013-02-01 23:00:00,18.8,6.1,30.37,WNW,299,0.0,0.0,57,0.00,,,0.00,Wunderground v.1.15,2013-02-02 04:00:00,
2013-02-01 23:05:00,18.8,7.2,30.37,WNW,299,0.0,0.0,60,0.00,,,0.00,Wunderground v.1.15,2013-02-02 04:05:00,
2013-02-01 23:15:00,18.5,6.5,30.37,WNW,299,0.0,0.0,59,0.00,,,0.00,Wunderground v.1.15,2013-02-02 04:15:00,
2013-02-01 23:20:00,18.4,6.4,30.37,WNW,299,0.0,0.0,59,0.00,,,0.00,Wunderground v.1.15,2013-02-02 04:20:00,
2013-02-01 23:30:00,18.3,6.7,30.37,WNW,299,0.0,0.0,60,0.00,,,0.00,Wunderground v.1.15,2013-02-02 04:30:00,
2013-02-01 23:35:00,18.1,6.5,30.37,WNW,299,0.0,0.0,60,0.00,,,0.00,Wunderground v.1.15,2013-02-02 04:35:00,
2013-02-01 23:45:00,17.7,7.2,30.38,WNW,299,0.0,0.0,63,0.00,,,0.00,Wunderground v.1.15,2013-02-02 04:45:00,
2013-02-01 23:55:00,17.5,7.0,30.37,WNW,300,0.0,0.0,63,0.00,,,0.00,Wunderground v.1.15,2013-02-02 04:55:00,